GFSMA_850_dewp_108.txt.gz
Dewpoint
7 10 12 12 12 12 11 11 11 11 11 10 8 8 7 8 8 8 8 9 10 11 11 9 9 8 8 5 -5 -1 -0 8 5 -3 -11 -11 -7 -10 -11 -10 -11 -11 -10
3 9 11 12 12 12 11 11 11 11 11 10 9 8 8 8 8 8 7 8 9 11 10 9 9 9 8 7 -1 4 4 6 5 -2 -11 -11 -11 -10 -10 -10 -10 -10 -9
0 6 9 11 11 12 12 12 12 12 12 11 10 8 8 8 8 8 8 6 8 11 9 9 9 10 7 8 4 7 6 7 7 5 -9 -13 -13 -11 -10 -9 -9 -9 -9
0 2 8 9 11 11 12 12 12 12 11 11 10 9 8 8 8 8 8 9 9 10 9 9 9 9 8 8 8 8 7 5 7 7 -5 -12 -13 -10 -9 -8 -8 -8 -8
1 2 7 9 10 11 11 12 12 12 12 12 10 9 9 8 8 9 9 9 10 10 10 9 8 7 7 8 8 7 8 7 7 7 5 -10 -12 -10 -8 -8 -8 -8 -7
2 3 5 10 10 11 11 12 12 12 11 11 10 10 9 9 9 9 10 10 10 10 11 9 8 8 7 7 8 8 8 8 7 7 7 -2 -10 -10 -9 -8 -8 -7 -7
3 4 5 8 10 11 10 11 12 11 11 11 10 10 10 10 10 10 10 10 10 10 11 10 9 7 7 7 8 8 8 8 8 8 8 5 -7 -10 -10 -9 -8 -7 -6
6 5 5 7 9 11 11 11 11 11 11 10 10 11 10 10 10 10 10 9 10 10 10 10 9 7 6 7 8 8 8 8 7 7 7 1 -13 -12 -11 -9 -8 -7 -6
9 7 7 7 8 9 11 12 12 11 11 10 10 10 10 10 9 8 10 10 10 10 10 10 9 7 6 5 6 7 7 7 7 7 7 7 -3 -13 -11 -10 -8 -6 -5
10 9 9 10 9 10 12 12 12 11 11 10 9 10 10 9 9 9 9 10 10 10 10 10 9 7 6 5 3 4 8 7 7 7 7 7 1 -11 -11 -9 -7 -6 -4
10 9 9 11 11 11 12 12 11 11 10 10 10 10 10 9 10 9 9 10 10 10 10 10 9 7 6 5 4 4 4 5 7 7 8 7 6 1 -8 -7 -6 -4 -3
10 8 9 11 11 11 12 11 11 11 10 10 10 10 10 9 10 10 9 9 9 9 10 10 9 7 6 6 4 5 5 4 4 5 4 4 8 7 2 -0 -3 -3 -1
8 6 7 10 11 10 11 11 10 10 11 10 10 10 10 9 9 9 10 9 9 9 9 10 9 7 6 6 4 4 5 5 5 4 4 3 2 5 7 6 -1 -0 1
8 6 6 8 11 10 11 10 10 10 10 10 10 10 10 10 9 9 10 10 9 9 9 9 8 7 6 4 2 2 3 4 5 5 4 2 -0 -1 0 2 2 1 0
9 8 8 11 11 10 10 11 10 10 10 10 10 10 10 11 9 9 10 9 9 9 9 8 8 7 6 4 2 4 4 4 5 3 5 6 4 3 1 -0 -0 0 2
7 9 9 11 11 10 10 11 10 10 10 10 9 10 10 9 9 10 10 9 9 9 9 8 8 7 6 4 4 5 6 6 6 6 6 6 6 6 5 5 5 5 5
9 9 9 9 11 10 10 10 10 9 8 8 9 9 8 8 9 9 9 10 9 9 9 8 7 6 5 3 4 5 6 6 7 7 7 7 7 7 6 6 7 7 6
9 9 11 11 10 10 9 9 8 8 9 9 8 9 9 9 10 10 9 9 9 9 8 7 6 5 5 5 4 4 5 7 7 7 7 7 7 7 7 7 6 5 4
9 11 10 10 10 9 9 9 8 8 9 10 10 9 10 9 9 10 10 9 10 9 8 8 7 6 6 6 6 5 6 7 7 7 7 7 7 7 6 4 4 4 4
10 9 9 9 9 8 8 8 8 8 8 8 9 9 9 9 9 10 9 9 9 9 9 8 8 7 6 4 6 6 6 7 7 7 7 7 7 6 4 4 6 5 4
9 8 8 8 7 8 8 8 8 7 7 8 8 8 9 9 8 9 10 10 9 9 8 8 8 7 7 5 4 7 7 7 7 8 7 7 7 5 4 5 6 4 4
8 8 8 8 8 7 8 8 8 7 7 7 8 9 9 8 8 10 10 10 10 9 9 8 8 7 7 5 5 8 8 8 8 7 7 7 6 6 6 5 4 4 6
8 8 8 7 7 7 8 8 8 8 8 8 8 7 9 9 9 9 9 9 9 9 9 9 7 8 8 8 7 7 7 8 7 6 6 7 7 6 6 6 5 5 4
7 6 6 7 7 7 8 8 8 8 8 8 8 6 7 8 9 9 9 9 9 8 8 8 8 8 7 8 7 7 8 7 7 7 7 7 6 5 5 4 3 2 1
3 4 4 4 5 6 7 8 8 8 8 7 7 7 7 7 7 9 9 9 8 8 8 8 8 8 8 8 8 8 7 7 7 6 6 6 5 3 1 -1 -1 -2 -2
0 -0 -1 -2 0 3 2 4 5 5 6 6 7 7 7 7 7 6 6 6 7 7 7 8 8 7 7 7 7 7 7 7 7 5 4 4 3 2 -3 -4 -4 -4 -4

GFSMA_850_dewp_111.txt.gz
Dewpoint
7 8 9 11 12 12 12 11 11 10 10 10 9 8 7 7 8 7 8 9 9 11 11 11 10 9 8 7 4 -5 -4 -5 2 1 5 -0 -7 -11 -11 -11 -12 -12 -10
4 6 9 10 12 12 12 12 11 11 11 10 10 9 8 8 8 8 8 8 8 9 11 12 11 10 8 8 7 -3 -4 5 5 -3 6 2 -3 -11 -11 -10 -11 -10 -9
3 5 7 9 10 12 12 12 12 12 11 11 11 10 9 9 9 9 8 8 9 9 10 12 10 9 10 8 7 2 3 7 7 1 0 5 -6 -10 -10 -9 -9 -9 -9
1 2 5 8 10 10 12 13 12 12 12 12 11 11 10 10 9 8 8 8 8 7 7 8 10 9 10 9 8 5 7 8 8 4 1 4 -2 -9 -10 -9 -9 -9 -8
1 0 1 6 9 10 11 12 13 13 12 12 12 11 11 9 9 8 8 8 8 9 7 8 10 9 9 9 8 8 7 8 7 7 -0 -0 0 -9 -10 -9 -8 -8 -8
2 2 2 3 7 9 11 11 13 13 13 12 11 11 10 9 9 9 8 8 9 9 9 10 10 10 8 8 8 8 8 8 7 7 7 -1 -1 -9 -9 -9 -8 -8 -7
6 3 3 2 6 8 8 10 11 12 13 11 11 11 10 10 10 9 9 9 9 10 10 9 10 10 8 8 8 7 8 8 7 7 7 6 -7 -10 -9 -8 -7 -7 -7
10 5 4 3 3 7 8 9 10 12 13 11 10 11 11 11 10 10 9 10 10 10 10 10 9 10 9 7 7 7 7 7 7 7 7 7 0 -12 -11 -9 -8 -6 -6
8 9 5 6 4 5 7 7 8 10 11 11 10 11 10 10 10 10 9 8 9 9 9 10 10 10 9 7 7 7 7 7 7 7 7 7 4 -6 -11 -10 -9 -8 -6
6 9 8 8 6 6 7 7 8 9 11 11 10 10 10 10 10 10 9 9 9 9 9 9 10 10 9 7 6 7 6 7 7 7 7 7 7 1 -11 -11 -10 -8 -7
4 5 10 9 9 7 7 7 9 10 11 11 10 10 10 9 10 10 10 8 8 9 9 10 10 10 10 8 7 6 5 6 7 7 7 7 7 6 -6 -10 -10 -9 -7
4 6 8 10 10 9 9 9 10 11 11 11 11 10 10 9 10 10 10 9 8 8 8 10 10 10 10 9 7 5 3 3 7 7 7 7 7 7 5 0 -7 -8 -6
7 2 5 9 9 9 9 10 11 11 11 11 11 10 10 10 9 9 10 10 9 9 9 9 9 10 10 9 7 5 4 4 3 4 5 7 7 7 7 7 4 0 -2
6 6 4 8 7 7 7 10 11 10 11 10 10 10 10 9 9 10 9 10 9 9 9 8 8 9 9 9 7 5 6 4 3 4 5 6 6 5 6 7 7 5 2
8 7 6 6 6 6 8 11 11 10 11 10 10 10 10 10 10 10 10 9 10 9 9 9 9 8 8 8 7 6 6 3 3 5 6 5 5 4 3 4 5 6 6
10 10 11 8 7 7 11 12 10 10 10 10 10 10 10 10 10 10 10 10 10 9 9 9 8 8 8 8 7 6 4 0 2 4 6 6 6 5 4 3 1 1 1
11 11 11 9 9 10 13 12 11 10 11 11 11 10 9 8 9 9 9 9 9 9 9 9 9 9 9 9 8 6 5 2 3 4 5 6 4 5 6 6 6 5 5
12 12 10 10 9 10 12 11 10 10 10 10 9 8 8 8 9 9 9 9 9 9 8 9 9 9 9 9 8 8 5 5 6 6 6 7 6 6 6 7 7 7 7
10 10 10 9 10 11 11 11 10 9 9 9 9 10 9 9 9 8 10 9 9 9 9 9 9 9 9 9 7 6 6 6 6 6 7 7 7 7 7 7 7 7 7
11 11 11 11 11 11 10 10 9 9 8 8 8 8 8 9 9 9 10 9 9 9 9 9 9 9 8 7 6 7 6 6 6 6 7 7 7 7 7 7 7 7 7
10 10 9 9 9 9 9 8 8 8 8 8 7 7 8 8 8 8 9 9 9 9 9 9 8 8 8 7 7 7 6 4 6 7 7 7 7 7 7 8 7 6 5
8 8 8 8 8 8 8 8 8 7 8 8 8 7 7 7 8 9 9 9 9 9 9 9 9 8 8 8 7 7 7 7 8 7 8 7 7 7 7 7 7 5 5
8 7 7 7 7 7 7 7 7 7 7 7 8 8 7 7 6 9 8 9 9 9 9 9 9 8 8 8 7 7 6 5 7 7 7 8 8 7 7 7 7 6 6
5 5 6 6 6 6 7 7 7 7 7 7 8 8 7 7 6 7 8 8 9 9 9 9 9 9 8 8 8 7 6 6 7 8 8 7 7 6 6 5 5 5 5
1 1 1 2 3 4 5 5 6 5 6 6 6 7 7 7 7 7 8 7 7 8 8 9 8 8 8 8 8 8 7 7 8 7 7 7 6 3 2 1 -0 0 -0
-1 -1 -1 -1 -1 -0 0 1 3 3 3 4 4 4 5 6 7 6 6 6 6 6 6 6 8 8 8 8 8 8 8 8 8 7 6 6 5 3 -3 -4 -3 -3 -3

GFSMA_850_dewp_114.txt.gz
Dewpoint
9 11 14 14 14 14 14 14 13 13 13 13 13 13 13 12 12 12 12 9 10 10 10 11 12 10 9 8 6 4 3 1 2 3 -6 -6 -6 -10 -11 -11 -12 -12 -10
9 7 12 14 14 14 14 14 14 13 12 13 13 13 13 13 12 12 12 10 8 9 9 8 10 11 9 9 7 6 -1 -0 2 4 -3 -9 -8 -3 -9 -10 -12 -11 -10
10 6 7 12 14 14 13 13 14 13 13 13 13 13 13 12 12 12 12 12 10 8 8 9 11 10 11 9 8 7 2 2 4 3 3 -5 -3 -1 -9 -10 -11 -11 -9
5 8 6 7 13 14 13 13 13 13 13 13 12 12 12 12 12 12 12 12 11 7 8 8 9 10 10 9 8 7 7 8 7 5 1 -3 -6 -5 -9 -9 -10 -10 -9
2 6 10 7 9 10 10 13 13 12 13 13 12 12 12 12 12 12 12 11 10 8 8 9 8 9 10 10 10 8 8 8 8 7 2 3 -6 -10 -10 -9 -9 -9 -9
4 5 12 10 7 9 10 11 13 13 13 13 12 12 12 12 11 11 11 11 10 9 9 9 9 9 8 10 9 9 8 8 7 7 6 5 -1 -12 -10 -8 -8 -8 -8
8 7 9 5 1 3 8 10 12 13 13 12 12 12 12 11 10 11 11 11 10 9 8 9 9 8 9 10 9 9 8 7 7 7 6 7 3 -2 -10 -8 -7 -7 -7
8 8 8 7 3 2 10 10 10 12 13 12 12 12 12 11 10 10 10 11 9 8 9 8 8 9 10 10 10 9 8 7 7 8 6 6 4 2 -8 -9 -7 -7 -7
8 5 6 9 7 4 5 11 10 11 12 13 12 11 12 10 10 11 11 11 10 10 9 9 9 9 9 10 10 9 8 7 7 7 7 6 5 -3 -7 -8 -7 -7 -7
9 6 5 7 9 5 4 5 10 10 11 11 12 12 11 10 10 10 10 9 9 10 8 8 9 9 10 10 9 9 6 7 7 7 6 7 6 5 3 -1 -6 -7 -8
5 10 5 8 8 8 5 5 10 10 9 11 10 12 11 12 11 10 10 11 9 9 9 8 8 8 9 10 10 9 7 6 7 7 7 6 7 7 7 5 0 -7 -8
-4 3 9 10 9 9 8 6 8 10 9 10 10 12 11 11 11 11 11 10 10 10 9 8 8 8 9 9 10 10 8 6 6 6 7 7 7 7 7 7 3 -5 -9
12 6 9 10 10 9 9 9 8 10 9 10 12 12 12 11 11 11 10 11 10 10 10 9 8 8 8 9 9 10 8 6 6 4 6 7 7 7 6 7 7 4 -4
13 12 9 9 9 8 9 9 9 9 10 11 11 11 11 11 11 11 11 11 10 10 10 9 8 8 8 9 9 10 9 7 7 4 4 6 7 7 7 7 7 7 5
12 13 13 13 10 8 8 8 7 9 10 9 11 11 11 10 11 11 11 10 10 10 10 9 10 8 8 8 9 10 10 8 6 5 2 3 5 6 7 7 7 7 7
12 12 12 11 11 7 7 8 8 8 10 11 12 11 11 10 11 11 11 11 10 10 10 10 10 10 8 9 8 9 10 9 7 6 3 3 4 5 6 6 6 6 7
12 13 12 12 12 13 11 8 8 8 10 10 11 11 10 10 11 11 11 11 10 10 10 10 10 9 9 9 9 9 9 10 8 6 5 3 4 4 5 5 5 5 5
13 13 13 12 12 13 13 11 8 11 12 11 10 11 11 11 10 9 9 9 10 9 10 10 9 9 9 8 9 9 9 9 9 8 3 3 4 5 6 6 6 5 5
12 11 12 12 12 12 12 9 9 12 11 11 10 10 10 10 9 9 9 10 10 10 10 9 9 9 9 8 9 9 9 9 9 8 8 2 3 4 6 6 5 6 7
11 11 10 11 11 11 11 11 11 11 11 10 10 9 9 8 9 9 9 9 9 9 9 9 9 9 9 9 9 9 9 9 9 8 8 4 5 5 7 6 6 7 7
10 10 10 11 11 11 10 10 10 10 9 9 8 8 8 8 7 7 8 8 9 9 9 9 9 9 9 8 9 9 9 9 8 8 7 6 6 7 7 7 7 7 7
9 9 9 9 9 9 9 9 9 8 8 8 8 8 8 8 7 7 7 7 8 9 9 9 9 9 9 8 9 9 8 8 8 8 8 7 7 7 7 7 7 8 7
5 6 6 6 7 7 7 7 8 7 7 7 7 7 8 8 8 7 6 6 7 9 9 8 9 9 9 8 9 9 8 8 7 7 7 8 7 7 8 8 8 8 8
1 2 2 2 4 4 7 6 7 7 7 7 7 7 7 7 7 7 6 7 8 8 8 8 8 8 8 9 9 9 8 8 7 7 7 7 6 6 6 6 6 6 7
-0 0 1 0 1 0 1 2 3 5 4 5 5 5 6 6 7 6 7 6 7 7 7 7 8 7 8 8 8 8 8 7 6 6 6 6 4 3 2 3 3 1 3
-3 -3 -2 -2 -2 -2 -1 0 1 1 1 1 1 2 3 4 5 6 6 5 5 5 5 5 5 6 7 8 8 8 8 7 6 5 5 6 5 2 -3 -3 -3 -1 -3

GFSMA_850_dewp_117.txt.gz
Dewpoint
13 14 13 14 13 14 14 14 13 13 13 13 13 12 12 12 11 11 12 10 7 9 10 10 11 11 11 9 8 7 6 4 2 -2 -2 -4 -11 -11 -11 -12 -13 -15 -13
14 14 13 13 13 13 14 15 14 13 13 14 13 13 12 12 12 11 12 12 8 8 9 9 10 11 10 9 9 8 6 4 2 -1 0 -0 -6 -8 -9 -10 -12 -13 -11
13 13 13 13 12 12 13 14 14 13 13 13 13 13 13 13 12 11 11 12 11 9 8 9 9 10 11 11 10 8 7 2 4 4 5 1 -0 -8 -10 -11 -12 -11 -10
11 14 11 11 13 12 14 14 14 14 13 13 13 14 13 13 12 12 13 11 12 11 9 7 8 9 8 8 10 10 9 7 8 7 6 3 4 -1 -9 -11 -11 -11 -9
2 11 13 8 10 13 14 13 13 14 13 14 13 13 13 13 13 13 12 11 11 11 11 9 8 8 8 7 9 10 9 7 7 8 6 6 7 4 -6 -10 -10 -10 -9
3 5 13 12 8 11 13 13 13 14 13 14 13 13 13 12 13 13 12 12 12 11 11 10 8 8 9 8 9 10 9 8 7 7 7 7 7 5 -2 -10 -10 -9 -9
13 12 12 12 9 5 7 13 13 14 13 13 13 13 13 12 12 12 12 11 11 11 10 10 10 9 9 8 8 8 10 9 8 7 7 7 5 3 -5 -9 -10 -9 -9
14 13 13 13 13 10 8 14 13 13 13 12 13 12 13 12 12 12 12 11 12 12 11 10 10 9 9 9 8 8 9 9 8 7 7 7 7 5 -2 -11 -9 -8 -8
14 14 13 11 13 10 9 11 12 14 13 12 12 12 11 10 10 11 11 11 12 11 11 11 10 9 9 9 9 8 10 9 8 7 7 7 7 6 1 -6 -11 -8 -8
13 13 14 13 13 11 10 8 7 9 14 13 12 12 11 9 9 9 11 11 12 11 10 10 7 9 9 9 8 9 10 9 8 8 7 8 6 6 6 0 -7 -9 -8
12 13 14 14 14 13 8 8 8 9 12 13 12 12 12 11 11 11 10 11 11 11 9 9 8 7 8 8 9 9 9 9 9 8 7 7 7 7 5 3 -9 -9 -8
11 12 13 13 13 13 12 9 9 8 11 12 13 12 11 12 11 11 11 10 10 11 10 11 10 6 7 7 8 8 9 9 10 7 7 7 7 6 6 5 3 -5 -3
11 11 13 14 13 13 9 9 10 9 12 10 13 12 12 11 11 11 11 11 10 9 9 11 10 9 7 7 8 8 9 10 9 8 6 7 7 6 6 6 6 4 4
11 12 12 12 14 13 12 10 11 10 10 9 11 9 12 11 11 11 10 10 10 10 10 10 10 9 8 8 8 7 9 9 10 9 6 6 7 7 7 6 7 6 5
10 12 12 12 11 13 13 11 10 9 10 9 10 12 11 12 11 11 11 10 11 11 10 10 10 11 9 8 8 8 8 9 9 9 7 6 6 7 7 6 7 7 7
11 11 13 11 12 12 13 13 11 10 11 10 8 9 11 12 12 11 11 11 10 11 11 10 10 10 10 9 8 8 9 9 9 9 6 7 6 6 6 7 7 7 7
11 11 12 11 11 12 12 13 12 9 12 11 9 11 10 12 11 11 10 10 11 11 11 10 10 10 9 10 9 8 8 9 9 9 9 8 6 5 5 6 7 7 7
10 11 12 12 11 11 12 12 13 13 10 11 10 8 11 11 12 11 11 10 11 11 10 10 9 9 9 9 9 8 8 8 9 9 9 9 7 6 4 4 5 6 7
11 12 12 11 12 12 12 12 12 12 12 10 8 9 12 11 11 10 11 11 10 10 11 10 9 9 10 10 9 9 8 8 9 9 9 9 9 7 6 4 4 4 6
12 11 11 12 12 12 12 12 12 12 11 10 11 11 11 11 10 10 10 10 9 10 9 10 10 9 9 9 9 9 9 8 9 9 9 9 9 7 6 5 5 5 6
9 9 10 11 11 11 11 11 11 11 11 11 11 10 10 9 9 9 8 8 8 9 9 9 9 9 9 9 9 9 9 9 9 9 9 9 9 8 6 5 6 6 7
5 6 7 9 9 10 9 9 10 10 10 10 10 9 9 9 8 8 8 8 7 7 7 8 8 9 9 8 9 9 9 9 8 8 9 8 9 9 8 5 5 5 6
1 2 2 4 6 8 7 8 8 8 8 8 8 8 8 8 8 8 8 7 7 6 6 7 7 8 8 9 9 9 8 8 8 8 9 8 9 8 8 7 6 5 6
-1 -0 -1 -0 1 2 3 4 5 5 5 4 6 7 7 7 7 7 7 7 7 6 7 7 8 8 8 8 8 8 9 8 8 8 8 8 7 8 7 7 8 7 8
-2 -2 -2 -2 -2 -1 0 0 2 1 1 1 2 3 3 4 4 5 5 6 6 5 5 6 6 6 6 7 8 8 8 8 8 7 7 7 6 5 5 5 5 7 7
-4 -3 -3 -4 -3 -2 -1 -1 -0 -0 -0 0 -1 -0 0 1 1 2 3 3 3 4 4 4 4 4 4 5 6 7 6 7 8 6 6 5 5 4 -0 -1 0 1 2